Theta_e
310 312 312 310 309 309 309 310 309 309 308 310 310 310 309 309 308 308 308 308 309 309 308 308 309 311 311 311 313 314 309 312 329 331 330 330 330 330 329 330 330 330 329 328
312 312 309 308 308 309 310 311 310 309 308 310 311 311 310 309 308 308 308 308 308 308 307 306 308 308 308 309 311 313 313 310 325 331 330 329 330 329 328 328 328 329 329 329
314 309 307 309 309 310 310 311 310 310 309 310 311 313 311 310 308 307 307 307 308 307 307 306 305 306 306 306 308 312 315 312 322 331 330 329 329 329 328 328 328 328 328 329
309 307 308 309 309 310 311 309 310 310 313 314 311 313 312 310 308 307 307 307 307 307 305 304 304 304 304 304 305 310 314 314 321 331 330 329 328 328 328 328 329 329 328 328
310 309 310 311 309 309 311 308 310 310 312 312 313 314 314 310 308 307 307 307 306 305 304 303 303 303 303 305 307 310 318 317 325 331 330 329 328 328 328 329 330 329 328 327
308 306 308 309 308 308 308 310 309 310 310 316 311 311 315 310 309 307 306 306 305 304 303 303 302 303 304 309 314 317 320 323 328 331 330 329 329 329 329 327 320 319 318 318
307 306 306 307 310 308 310 310 316 316 316 312 308 310 311 308 306 306 306 305 303 303 302 302 303 302 303 308 319 321 322 325 327 327 326 325 324 322 320 318 318 317 316 316
312 313 306 306 309 311 309 310 312 312 312 309 308 312 311 307 306 306 305 304 304 303 302 302 301 301 301 303 310 314 314 313 314 315 315 316 315 314 313 314 314 315 314 313
307 308 305 306 308 309 310 311 309 311 308 310 309 309 308 307 306 305 305 304 303 301 302 301 300 299 300 299 302 307 308 309 310 310 313 314 314 314 312 312 311 311 310 312
305 309 304 305 307 308 310 308 311 310 314 310 308 308 309 307 305 305 305 304 303 302 302 300 299 298 300 299 298 299 302 303 304 305 306 306 308 311 311 312 311 310 310 311
303 307 305 305 308 309 309 309 308 309 310 310 308 308 305 305 304 304 304 303 302 301 301 301 297 297 298 298 297 296 296 297 299 300 301 304 305 306 309 310 310 309 309 307
304 305 309 308 304 303 307 306 307 308 308 308 307 307 304 303 304 303 303 302 301 300 300 299 298 296 296 296 297 296 295 294 294 295 295 297 302 302 301 301 299 301 301 302
304 306 308 307 306 303 307 306 305 305 305 305 307 307 303 303 303 303 302 302 300 299 299 298 297 296 295 296 295 295 294 294 294 294 294 294 294 295 295 296 295 296 297 296
302 305 306 307 307 307 306 306 304 304 306 306 306 305 305 303 302 302 302 301 300 298 297 297 296 295 295 295 295 294 294 294 294 294 293 293 293 293 294 294 295 295 295 295
301 303 302 301 302 303 304 302 303 302 303 304 305 305 304 302 300 301 301 300 299 298 296 295 295 294 293 293 293 293 293 293 293 293 293 292 293 293 293 293 293 294 294 294
297 301 299 298 296 298 299 300 300 300 301 303 304 305 302 301 299 300 300 299 299 297 296 295 294 293 293 292 292 292 292 292 292 292 292 292 292 292 292 292 292 292 292 292
299 297 299 302 294 296 301 298 299 299 301 303 304 303 302 301 300 299 299 298 297 296 295 294 293 293 292 292 292 291 291 291 291 290 290 291 291 291 291 291 291 291 291 291
296 299 299 300 296 300 300 297 298 299 301 302 301 301 300 300 299 297 296 297 296 295 295 294 293 292 292 291 291 291 290 290 290 290 289 290 290 291 291 291 292 291 291 290
296 297 295 300 301 302 295 294 298 299 300 302 302 301 300 298 297 298 296 296 295 295 294 294 294 293 293 292 290 290 289 289 288 287 287 287 288 289 289 290 290 290 290 289
295 296 301 295 302 306 297 298 300 300 301 302 302 301 300 298 300 301 297 295 295 294 294 294 293 292 289 286 289 288 286 285 285 285 284 285 286 287 288 288 289 289 289 289
298 299 300 299 301 303 296 298 300 301 301 301 301 300 299 299 300 299 296 295 295 295 294 293 292 289 286 285 285 285 283 282 282 282 283 283 283 284 285 286 287 287 288 288
300 301 300 299 300 301 298 298 300 299 300 301 300 300 299 299 298 297 297 296 295 294 294 293 291 288 286 284 283 283 282 282 282 282 283 283 283 284 284 285 285 286 286 287
300 301 301 300 300 294 298 299 298 299 300 300 300 299 299 298 298 297 297 296 295 295 293 290 289 287 285 283 282 282 281 281 282 282 283 283 284 284 284 284 285 285 285 285
295 295 296 295 297 294 296 295 297 299 299 300 299 299 299 298 298 297 296 295 296 293 291 289 288 286 285 283 282 281 281 282 282 282 282 282 282 283 283 283 283 283 283 284
296 294 296 296 295 294 294 297 297 298 299 299 298 298 299 298 298 297 296 296 295 293 291 290 288 286 285 283 281 281 281 281 282 282 282 281 281 281 281 281 282 282 282 282
294 296 297 300 297 296 296 296 297 297 297 298 297 296 297 298 297 296 295 295 294 293 291 291 289 287 285 283 282 281 281 281 281 281 280 280 280 279 279 279 280 280 281 282
Wind_Speed
6 4 8 8 9 9 6 5 3 2 3 4 2 5 4 11 16 21 21 22 23 24 29 33 32 27 31 29 25 22 23 26 25 29 29 28 26 25 24 21 21 23 23 20
4 7 5 4 3 5 3 2 3 1 1 4 4 10 5 9 15 20 22 23 25 27 26 32 36 33 33 31 29 26 24 28 25 27 30 29 28 27 26 24 25 25 22 23
5 6 2 1 4 4 5 3 3 4 5 5 10 11 9 5 14 20 21 21 24 27 26 24 31 35 35 31 29 27 24 27 26 26 25 21 22 20 23 23 24 26 28 26
6 2 1 2 2 6 2 2 3 3 4 3 4 4 8 9 16 20 22 23 25 27 25 23 30 33 36 34 32 27 27 26 25 25 25 25 22 18 19 22 23 21 23 23
3 2 2 1 2 5 3 3 2 0 2 3 5 4 6 12 17 21 22 23 24 22 23 25 30 36 41 33 29 28 25 24 21 25 27 25 20 19 16 18 18 19 14 19
4 1 3 3 1 2 3 2 2 2 3 2 2 4 3 8 14 20 22 23 20 21 23 26 35 38 33 33 19 25 18 16 17 25 21 23 22 16 14 9 18 19 17 12
2 2 1 2 3 4 4 5 2 2 3 2 2 5 5 11 15 18 20 21 18 20 22 23 25 32 38 38 15 5 8 4 12 15 15 14 14 17 18 17 23 25 24 27
6 3 1 3 3 3 2 4 2 4 3 4 3 3 3 8 13 16 17 19 18 23 21 21 28 33 36 36 34 31 29 27 32 34 35 31 30 29 25 24 28 25 31 27
5 3 4 3 2 2 3 1 2 0 1 3 2 3 6 10 16 18 19 21 21 20 20 22 30 36 38 41 38 35 33 29 32 34 38 36 33 32 30 30 29 31 29 31
4 4 1 3 2 2 3 4 3 2 3 4 2 4 3 14 17 18 20 20 21 19 19 18 28 32 39 39 42 38 33 36 36 34 33 36 38 40 38 39 36 34 33 31
4 1 4 2 5 4 4 3 3 2 2 3 4 1 4 7 10 13 15 16 17 18 18 16 24 30 33 41 46 39 40 44 41 37 34 39 40 40 37 38 32 25 25 26
3 2 4 2 3 2 3 2 5 3 3 3 3 2 3 5 7 10 13 14 15 16 17 19 23 27 32 33 36 41 45 44 39 35 33 39 39 37 38 36 29 28 27 24
7 4 4 2 2 3 5 7 4 1 1 6 2 1 3 3 7 10 11 13 13 15 17 17 23 24 27 29 32 35 39 38 39 40 37 34 35 36 35 31 28 28 28 25
1 2 3 1 4 3 5 11 10 7 3 3 8 7 7 4 7 9 10 11 12 13 14 15 18 23 24 26 27 28 32 32 34 37 36 35 34 31 30 30 28 28 26 26
3 4 3 2 2 0 3 8 13 14 10 6 2 5 6 3 3 6 7 8 9 11 13 14 14 20 21 23 24 23 24 25 28 32 32 30 31 31 30 29 27 26 25 23
2 2 1 2 1 2 6 10 13 15 14 14 13 12 3 2 1 2 5 6 7 9 10 11 14 16 18 20 19 19 20 20 25 28 27 26 26 25 25 23 22 21 23 21
7 6 4 2 2 3 7 18 19 15 10 15 10 6 6 3 2 1 2 3 4 6 7 9 12 13 14 15 16 17 16 15 17 17 17 19 19 19 20 19 19 20 18 16
6 5 0 2 1 4 2 1 7 18 15 13 3 7 5 2 2 2 1 1 2 4 6 8 9 11 12 12 13 12 14 15 15 16 17 17 16 16 15 15 16 14 13 13
4 4 3 3 4 6 4 6 7 15 12 14 14 8 7 5 3 5 4 3 3 4 5 6 6 7 8 10 10 10 11 12 14 16 16 15 14 13 13 13 12 12 9 9
3 1 1 3 3 6 3 9 5 7 5 18 16 13 12 10 3 3 11 7 3 1 1 1 4 5 7 9 8 8 10 12 14 15 15 15 15 14 13 12 12 10 7 6
5 3 7 4 5 6 5 11 9 6 1 15 16 14 14 8 1 10 14 10 8 5 4 3 3 4 6 9 8 9 9 12 12 11 11 12 12 11 10 9 9 7 6 5
9 8 5 4 4 9 14 9 8 3 8 13 13 13 13 8 9 11 9 9 8 8 6 3 2 3 5 6 6 7 9 11 11 10 11 11 11 11 10 10 9 9 8 8
7 5 5 9 5 2 19 3 5 6 13 10 11 11 12 12 12 12 10 12 12 11 8 6 4 4 5 5 6 5 8 9 9 9 9 9 9 9 10 9 9 8 8 8
8 5 3 2 6 7 15 1 4 7 9 11 10 12 14 14 13 12 11 13 12 11 10 8 6 6 6 5 5 6 8 9 9 9 10 11 11 11 10 9 8 7 7 7
3 12 7 5 4 4 9 11 9 7 6 9 11 13 12 12 12 12 11 12 12 12 13 11 9 9 8 6 6 7 8 8 8 9 10 11 11 12 11 10 8 5 4 5
7 7 7 6 11 5 10 18 11 11 12 12 11 8 11 14 12 15 12 13 15 16 15 13 11 12 10 8 8 8 8 8 8 8 9 10 10 10 10 10 8 7 5 1
Wind_Direction
30 70 64 44 34 59 83 102 123 114 63 309 243 270 354 5 4 359 352 349 344 344 339 334 328 325 321 310 300 285 263 248 221 209 205 204 203 212 220 224 218 216 216 223
76 79 55 34 65 94 98 154 39 171 309 306 287 273 218 359 8 356 352 350 344 342 337 335 330 324 319 310 303 285 262 250 226 212 208 206 203 211 217 222 228 229 229 225
65 89 101 342 131 122 49 20 14 328 307 258 295 254 210 336 2 354 355 351 347 346 334 331 327 322 320 310 302 287 267 254 232 212 206 199 206 210 212 218 225 235 230 229
66 82 109 144 77 308 226 47 345 302 298 328 344 311 171 359 357 356 353 354 352 349 340 332 331 325 319 311 301 285 266 247 240 204 197 198 204 200 210 218 226 222 226 228
98 99 95 69 29 332 47 326 285 261 297 312 171 260 85 10 354 347 350 355 1 347 339 334 330 327 314 309 299 286 260 229 227 201 195 200 206 205 205 218 215 225 218 230
87 58 339 29 57 15 340 243 231 252 246 241 105 345 64 15 346 344 347 355 0 346 339 342 339 333 335 336 310 284 223 208 211 196 201 200 201 203 205 151 110 97 90 81
156 111 114 321 238 191 244 252 249 225 221 316 96 277 57 18 0 346 347 355 356 347 349 350 346 350 355 352 345 212 179 191 147 134 127 126 108 93 91 93 110 106 96 84
175 190 183 2 350 1 8 313 330 300 300 332 110 265 85 22 5 354 356 2 358 353 350 351 352 358 6 3 23 43 57 66 79 89 89 92 92 85 79 79 79 76 87 81
146 132 123 53 345 302 100 249 2 108 52 272 230 189 150 353 0 356 358 4 359 353 350 356 1 6 13 13 17 32 46 55 64 75 86 90 89 88 87 90 85 88 90 97
143 123 172 120 274 105 302 104 225 131 288 280 170 272 292 358 345 348 354 3 356 0 355 4 6 10 16 22 23 26 41 50 54 63 74 83 90 93 88 85 80 77 84 87
154 223 139 178 205 191 166 190 227 318 285 291 305 89 60 355 343 344 349 1 360 2 1 12 9 17 22 27 28 22 35 45 46 53 65 78 81 86 88 86 85 86 90 87
163 112 164 146 119 287 287 238 238 256 175 250 300 295 115 14 356 359 353 360 6 4 9 20 18 20 25 27 32 30 37 39 43 45 50 62 76 80 79 79 79 80 79 81
177 174 134 154 198 196 229 193 225 213 351 222 251 66 169 50 22 21 3 360 12 10 11 20 24 25 26 31 35 40 43 39 49 47 43 47 55 67 74 77 75 76 79 75
159 197 261 241 83 129 191 199 198 214 193 204 238 287 207 30 21 14 7 5 12 23 18 17 25 28 30 36 39 42 44 49 53 56 49 49 51 55 61 72 75 75 75 77
195 209 212 110 82 261 238 195 199 215 222 227 48 264 313 12 14 12 6 3 16 26 28 24 23 23 29 37 41 42 42 49 54 55 56 51 59 65 66 65 66 69 70 70
167 175 134 207 298 251 252 235 220 227 235 242 262 269 6 135 304 7 18 7 17 28 31 32 30 32 30 30 39 44 42 43 62 63 59 59 60 60 63 62 61 61 62 61
161 147 171 191 8 277 266 223 210 217 218 217 232 245 166 206 234 332 4 14 23 33 38 37 35 33 35 38 37 42 43 47 53 56 54 56 59 60 62 61 57 55 57 58
144 132 255 131 223 238 73 58 213 209 217 207 170 171 192 195 122 131 99 25 48 43 49 48 46 43 35 37 45 50 49 50 49 48 46 45 49 48 53 56 56 51 49 54
173 143 132 179 209 309 190 190 182 185 226 210 205 182 156 138 145 206 161 103 88 80 58 48 34 31 31 29 29 38 45 45 40 34 29 30 36 35 35 41 36 45 43 48
128 319 260 174 221 232 77 146 167 176 267 185 190 179 163 149 199 186 159 156 154 176 184 10 6 1 7 6 12 27 29 26 25 20 16 17 20 22 21 21 28 30 34 51
158 161 211 193 243 281 169 154 167 161 178 165 172 167 161 179 83 122 150 163 188 211 228 243 305 348 356 2 11 19 22 21 11 12 14 15 18 21 19 20 23 31 43 53
172 161 181 180 225 257 150 137 193 131 134 152 157 159 167 156 135 147 165 170 188 193 205 217 247 295 330 356 9 2 5 360 1 4 9 16 21 23 23 27 24 31 43 45
205 200 184 202 215 106 175 52 173 157 147 160 158 159 161 157 156 166 180 173 193 213 218 232 243 267 299 337 0 4 351 354 358 1 3 5 10 13 16 19 18 25 31 38
217 168 224 153 206 201 200 56 146 174 159 159 158 159 162 164 164 172 187 192 208 213 216 224 237 246 268 303 333 347 346 349 349 352 353 354 356 2 3 9 5 6 19 21
175 154 174 253 244 173 203 204 182 163 141 148 150 161 169 165 171 178 194 208 209 216 217 222 232 247 261 284 308 325 334 340 344 342 341 343 347 348 351 358 0 358 10 12
191 168 183 214 175 183 197 196 177 166 169 163 156 157 178 177 175 180 201 207 210 219 224 229 238 246 251 263 281 298 313 325 329 335 334 336 343 344 347 348 353 357 357 27